TimeEDT,TemperatureF,Dew PointF,Humidity,Sea Level PressureIn,VisibilityMPH,Wind Direction,Wind SpeedMPH,Gust SpeedMPH,PrecipitationIn,Events,Conditions,WindDirDegrees,DateUTC
12:15 AM,36.0,24.6,63,30.01,10.0,NNW,8.1,-,N/A,,Scattered Clouds,330,2013-04-02 04:15:00
12:35 AM,35.8,24.3,63,30.01,10.0,NNW,4.6,-,N/A,,Scattered Clouds,330,2013-04-02 04:35:00
12:55 AM,35.6,23.5,62,30.01,10.0,NW,5.8,-,N/A,,Scattered Clouds,320,2013-04-02 04:55:00
1:15 AM,35.4,23.0,61,30.01,10.0,NW,5.8,-,N/A,,Scattered Clouds,320,2013-04-02 05:15:00
1:35 AM,35.2,22.8,61,30.01,10.0,NNW,5.8,-,N/A,,Mostly Cloudy,330,2013-04-02 05:35:00
1:55 AM,34.9,22.6,61,30.01,10.0,NW,5.8,-,N/A,,Overcast,320,2013-04-02 05:55:00
2:15 AM,34.7,22.8,62,30.01,10.0,NW,5.8,-,N/A,,Mostly Cloudy,310,2013-04-02 06:15:00
2:35 AM,34.2,22.8,63,30.01,10.0,NW,5.8,-,N/A,,Scattered Clouds,310,2013-04-02 06:35:00
2:55 AM,33.6,22.6,64,30.01,10.0,NW,5.8,-,N/A,,Clear,310,2013-04-02 06:55:00
3:15 AM,33.3,22.1,64,30.01,10.0,NW,5.8,-,N/A,,Clear,320,2013-04-02 07:15:00
3:35 AM,32.9,21.6,63,30.02,10.0,NW,4.6,-,N/A,,Clear,310,2013-04-02 07:35:00
3:55 AM,32.2,22.1,66,30.02,10.0,Calm,Calm,-,N/A,,Scattered Clouds,0,2013-04-02 07:55:00
4:15 AM,31.8,22.6,69,30.02,10.0,NNW,4.6,-,N/A,,Scattered Clouds,330,2013-04-02 08:15:00
4:35 AM,31.6,21.7,67,30.03,10.0,NNW,5.8,-,N/A,,Mostly Cloudy,330,2013-04-02 08:35:00
4:55 AM,31.1,21.2,67,30.04,10.0,NNW,5.8,-,N/A,,Overcast,330,2013-04-02 08:55:00
5:15 AM,31.1,21.0,66,30.05,10.0,NW,4.6,-,N/A,,Mostly Cloudy,320,2013-04-02 09:15:00
5:35 AM,30.9,20.5,65,30.05,10.0,NNW,5.8,-,N/A,,Mostly Cloudy,330,2013-04-02 09:35:00
5:55 AM,30.2,20.3,67,30.06,10.0,NNW,6.9,-,N/A,,Mostly Cloudy,330,2013-04-02 09:55:00
6:15 AM,30.2,19.8,65,30.07,10.0,NNW,4.6,-,N/A,,Mostly Cloudy,330,2013-04-02 10:15:00
6:35 AM,30.0,19.0,64,30.08,10.0,NNW,3.5,-,N/A,,Scattered Clouds,330,2013-04-02 10:35:00
6:55 AM,29.8,18.5,63,30.08,10.0,WNW,3.5,-,N/A,,Clear,300,2013-04-02 10:55:00
7:15 AM,29.3,19.4,67,30.09,10.0,WNW,5.8,-,N/A,,Clear,290,2013-04-02 11:15:00
7:35 AM,29.5,19.2,66,30.11,10.0,WNW,5.8,-,N/A,,Clear,290,2013-04-02 11:35:00
7:55 AM,30.0,18.7,63,30.12,10.0,WNW,4.6,-,N/A,,Clear,300,2013-04-02 11:55:00
8:15 AM,30.6,18.7,61,30.12,10.0,WNW,4.6,-,N/A,,Clear,290,2013-04-02 12:15:00
8:35 AM,31.1,18.9,61,30.12,10.0,Calm,Calm,-,N/A,,Clear,0,2013-04-02 12:35:00
8:55 AM,31.3,19.0,61,30.12,10.0,WNW,3.5,-,N/A,,Clear,300,2013-04-02 12:55:00
9:15 AM,31.8,19.6,61,30.13,10.0,WNW,5.8,-,N/A,,Clear,290,2013-04-02 13:15:00
9:35 AM,32.0,18.3,57,30.13,10.0,NW,5.8,-,N/A,,Scattered Clouds,310,2013-04-02 13:35:00
9:55 AM,32.7,17.8,54,30.14,10.0,NNW,5.8,-,N/A,,Scattered Clouds,330,2013-04-02 13:55:00
10:35 AM,34.2,18.3,52,30.15,10.0,West,9.2,-,N/A,,Clear,280,2013-04-02 14:35:00
10:55 AM,34.9,18.7,52,30.15,10.0,West,10.4,18.4,N/A,,Clear,280,2013-04-02 14:55:00
11:15 AM,35.2,17.6,49,30.15,10.0,NW,6.9,-,N/A,,Clear,310,2013-04-02 15:15:00
11:55 AM,36.5,17.4,46,30.15,10.0,NW,6.9,-,N/A,,Clear,310,2013-04-02 15:55:00
12:15 PM,36.9,14.0,39,30.15,10.0,WNW,9.2,-,N/A,,Clear,300,2013-04-02 16:15:00
12:35 PM,37.8,13.3,37,30.14,10.0,NNW,11.5,16.1,N/A,,Clear,330,2013-04-02 16:35:00
1:15 PM,39.9,13.5,34,30.13,10.0,NNW,9.2,-,N/A,,Clear,330,2013-04-02 17:15:00
1:35 PM,40.1,12.7,33,30.12,10.0,NNW,11.5,19.6,N/A,,Clear,340,2013-04-02 17:35:00
2:15 PM,40.6,15.6,36,30.11,10.0,WSW,4.6,-,N/A,,Clear,240,2013-04-02 18:15:00
2:35 PM,41.9,14.9,34,30.10,10.0,NNW,10.4,17.3,N/A,,Clear,340,2013-04-02 18:35:00
2:55 PM,43.0,15.4,33,30.09,10.0,NNW,10.4,-,N/A,,Clear,330,2013-04-02 18:55:00
3:15 PM,42.3,13.8,32,30.09,10.0,WSW,6.9,-,N/A,,Clear,240,2013-04-02 19:15:00
3:35 PM,43.7,14.5,31,30.08,10.0,WNW,5.8,16.1,N/A,,Clear,300,2013-04-02 19:35:00
3:55 PM,43.9,15.3,32,30.08,10.0,WNW,9.2,16.1,N/A,,Clear,290,2013-04-02 19:55:00
4:15 PM,44.8,14.7,30,30.08,10.0,West,11.5,21.9,N/A,,Clear,280,2013-04-02 20:15:00
4:35 PM,44.6,13.5,28,30.08,10.0,NW,8.1,20.7,N/A,,Clear,310,2013-04-02 20:35:00
4:55 PM,45.1,14.7,29,30.07,10.0,West,10.4,-,N/A,,Clear,280,2013-04-02 20:55:00
5:15 PM,45.0,14.5,29,30.07,10.0,WNW,10.4,-,N/A,,Clear,300,2013-04-02 21:15:00
5:35 PM,46.0,15.1,29,30.07,10.0,WNW,12.7,21.9,N/A,,Clear,290,2013-04-02 21:35:00
5:55 PM,44.6,11.8,27,30.08,10.0,West,9.2,18.4,N/A,,Clear,280,2013-04-02 21:55:00
6:15 PM,44.6,12.9,28,30.08,10.0,NNW,5.8,-,N/A,,Clear,330,2013-04-02 22:15:00
6:35 PM,43.5,11.5,27,30.09,10.0,WNW,9.2,18.4,N/A,,Clear,300,2013-04-02 22:35:00
6:55 PM,43.2,12.0,28,30.09,10.0,WNW,9.2,-,N/A,,Clear,290,2013-04-02 22:55:00
7:15 PM,42.6,11.7,28,30.08,10.0,NW,9.2,-,N/A,,Clear,310,2013-04-02 23:15:00
7:35 PM,41.9,11.8,29,30.09,10.0,NW,4.6,-,N/A,,Clear,310,2013-04-02 23:35:00
7:55 PM,41.0,11.7,30,30.09,10.0,NW,5.8,-,N/A,,Clear,320,2013-04-02 23:55:00
8:15 PM,40.5,11.3,30,30.10,10.0,NW,4.6,-,N/A,,Clear,320,2013-04-03 00:15:00
8:35 PM,39.9,11.8,32,30.10,10.0,WNW,3.5,-,N/A,,Clear,290,2013-04-03 00:35:00
8:55 PM,39.4,11.8,32,30.11,10.0,WNW,3.5,-,N/A,,Clear,300,2013-04-03 00:55:00
9:15 PM,39.4,10.9,31,30.12,10.0,Calm,Calm,-,N/A,,Clear,0,2013-04-03 01:15:00
9:35 PM,39.2,10.6,31,30.12,10.0,West,4.6,-,N/A,,Clear,270,2013-04-03 01:35:00
9:55 PM,38.7,10.2,31,30.13,10.0,West,5.8,-,N/A,,Clear,280,2013-04-03 01:55:00
10:15 PM,38.1,10.0,31,30.13,10.0,West,4.6,-,N/A,,Clear,280,2013-04-03 02:15:00
10:55 PM,37.6,10.4,33,30.15,10.0,NNW,4.6,-,N/A,,Clear,330,2013-04-03 02:55:00
11:15 PM,36.5,11.7,36,30.15,10.0,NNW,5.8,-,N/A,,Clear,340,2013-04-03 03:15:00
11:55 PM,35.6,11.8,38,30.16,10.0,NNW,6.9,-,N/A,,Clear,330,2013-04-03 03:55:00